Location: Monfort
(47.1967°N, 0.2115°W)
Time: 04:24:29
(UTC+00:00)

Ariane Rocket - Pass Details

Date: 24 October 2020
Orbit: 759 x 771 km, 98.7° (Epoch: 01 December)

Event Time Altitude Azimuth Distance (km) Brightness Sun altitude
Exits shadow 19:18:48 42° 28° (NNE) 1,101 3.6 -24.7°
Drops below altitude 10° 19:22:33 10° 355° (N) 2,325 5.6 -25.4°
Sets 19:24:55 0° 350° (N) 3,256 6.5 -25.8°
